Location: Brantley
(31.5822°N, 86.2569°W)
Time: 15:50:52
(UTC+00:00)

Injun/Solrad 3 - Pass Details

Date: 19 February 2026
Orbit: 871 x 985 km, 66.8° (Epoch: 11 March)

Event Time Altitude Azimuth Distance (km) Brightness Sun altitude
Rises 03:01:23 0° 323° (NW) 3,607 11.5 -44.4°
Reaches altitude 10° 03:04:06 10° 315° (NW) 2,676 10.8 -45.0°
Enters shadow 03:05:41 17° 306° (NW) 2,188 10.3 -45.3°
Maximum altitude 03:09:40 35° 252° (WSW) 1,512 - -46.1°
Drops below altitude 10° 03:15:20 10° 189° (S) 2,716 - -47.2°
Sets 03:18:08 0° 180° (S) 3,668 - -47.8°
